SCP
2 2 2 2 2 1 1 1 1 1 1 1 1 1 1 1 1 1 1 1 1 1 1 1 1 1 1 1 1 1 1 1 1 1 1 0 0 0 0 0 0 0 0
2 2 2 2 1 1 1 1 1 1 1 1 1 1 1 1 1 1 1 1 1 1 1 1 1 1 1 1 1 1 1 1 1 1 1 0 0 0 0 0 0 0 0
2 2 2 2 1 1 1 1 1 1 1 1 1 1 1 2 1 1 1 1 1 2 2 2 2 2 1 1 1 1 1 1 1 1 0 0 0 0 0 0 0 0 0
2 2 2 2 1 1 1 1 1 1 1 1 1 1 1 2 2 1 1 2 2 2 2 2 2 2 2 1 1 1 1 1 1 0 0 0 0 0 0 0 0 0 0
2 2 2 2 2 1 1 1 1 1 1 1 1 1 1 1 1 1 1 2 2 2 2 2 2 2 1 1 1 1 1 1 0 0 0 0 0 0 0 0 0 0 0
3 3 2 2 2 1 1 1 1 1 1 1 1 1 1 1 1 0 1 1 1 1 1 1 1 1 1 1 0 0 0 0 0 0 0 0 0 0 0 0 0 0 0
4 3 3 2 2 1 1 1 1 1 1 1 1 1 1 0 0 0 0 0 0 0 0 0 0 0 0 0 0 0 0 0 0 0 0 0 0 0 0 0 0 0 0
4 4 3 3 2 2 2 2 2 1 1 1 0 0 0 0 0 0 0 0 0 0 0 0 0 0 0 0 0 0 0 0 0 0 0 0 0 0 0 0 0 0 0
4 3 3 3 3 2 2 2 2 1 1 0 0 0 0 0 0 0 0 0 0 0 0 0 0 0 0 0 0 0 0 0 0 0 0 0 0 0 0 0 0 0 0
3 3 3 3 3 2 2 2 1 1 0 0 0 0 0 0 0 0 0 0 0 0 0 0 0 0 0 0 0 0 0 0 0 0 0 0 0 0 0 0 0 0 0
3 3 3 3 2 2 1 1 1 1 0 0 0 0 0 0 0 0 0 0 0 0 0 0 0 0 0 0 0 0 0 0 0 0 0 0 0 0 0 0 0 0 0
3 3 3 2 2 2 1 1 1 1 0 0 0 0 0 0 0 0 0 0 0 0 0 0 0 0 0 0 0 0 0 0 0 0 0 0 0 0 0 0 0 0 0
4 3 2 2 2 2 2 2 1 1 1 0 0 0 0 0 0 0 0 0 0 0 0 0 0 0 0 0 0 0 0 0 0 0 0 0 0 0 0 0 0 0 0
3 2 2 1 2 2 2 2 1 1 1 1 0 0 0 0 0 0 0 0 0 0 0 0 0 0 0 0 0 0 0 0 0 0 0 0 0 0 0 0 0 0 0
2 2 1 1 1 1 1 1 1 1 1 1 0 0 0 0 0 0 0 0 0 0 0 0 0 0 0 0 0 0 0 0 0 0 0 0 0 0 0 0 0 0 0
2 1 1 0 0 0 0 0 0 0 0 0 0 0 0 0 0 0 0 0 0 0 0 0 0 0 0 0 0 0 0 0 0 0 0 0 0 0 0 0 0 0 0
1 1 1 0 0 0 0 0 0 0 0 0 0 0 0 0 0 0 0 0 0 0 0 0 0 0 0 0 0 0 0 0 0 0 0 0 0 0 0 0 0 0 0
1 1 1 0 0 0 0 0 0 0 0 0 0 0 0 0 0 0 0 0 0 0 0 0 0 0 0 0 0 0 0 0 0 0 0 0 0 0 0 0 0 0 0
1 1 0 0 0 0 0 0 0 0 0 0 0 0 0 0 0 0 0 0 0 0 0 0 0 0 0 0 0 0 0 0 0 0 0 0 0 0 0 0 0 0 0
0 0 0 0 0 0 0 0 0 0 0 0 0 0 0 0 0 0 0 0 0 0 0 0 0 0 0 0 0 0 0 0 0 0 0 0 0 0 0 0 0 0 0
1 0 0 0 0 0 0 0 0 0 0 0 0 0 0 0 0 0 0 0 0 0 0 0 0 0 0 0 0 0 0 0 0 0 0 0 0 0 0 0 0 0 0
1 0 0 0 0 0 0 0 0 0 0 0 0 0 0 0 0 0 0 0 0 0 0 0 0 0 0 0 0 0 0 0 0 0 0 0 0 0 0 0 0 0 0
1 0 0 0 0 0 0 0 0 0 0 0 0 0 0 0 0 0 0 0 0 0 0 0 0 0 0 0 0 0 0 0 0 0 0 0 0 0 0 0 0 0 0
1 0 0 0 0 0 0 0 0 0 0 0 0 0 0 0 0 0 0 0 0 0 0 0 0 0 0 0 0 0 0 0 0 0 0 0 0 0 0 0 0 0 0
1 0 0 0 0 0 0 0 0 0 0 0 0 0 0 0 0 0 0 0 0 0 0 0 0 0 0 0 0 0 0 0 0 0 0 0 0 0 0 0 0 0 0
1 1 0 0 0 0 0 0 0 0 0 0 0 0 0 0 0 0 0 0 0 0 0 0 0 0 0 0 0 0 0 0 0 0 0 0 0 0 0 0 0 0 0
Wind_Speed
3 3 2 2 2 2 2 1 1 2 2 2 2 2 3 3 2 2 2 2 2 1 1 1 0 0 0 0 0 0 0 1 1 1 1 1 2 3 3 3 3 3 4
3 3 3 3 3 3 2 2 2 2 2 2 2 2 3 3 3 3 3 3 2 2 3 2 2 2 2 2 1 1 1 1 1 0 1 2 2 2 3 3 3 3 4
4 4 4 4 4 3 2 2 2 2 2 2 2 3 3 3 3 3 3 4 4 4 4 4 3 3 3 3 3 2 2 2 2 2 1 2 2 2 3 4 5 4 5
5 4 4 3 3 3 3 3 3 3 3 3 3 3 3 3 4 4 4 5 5 5 5 5 4 4 3 3 3 3 3 3 3 3 2 2 2 2 2 3 3 4 5
5 5 4 3 4 4 4 4 4 4 4 4 4 4 4 4 5 5 5 6 6 6 6 6 6 8 8 5 4 4 4 4 3 3 3 2 2 2 2 1 3 3 4
5 4 4 4 4 4 4 4 4 5 5 5 6 5 6 5 8 9 7 6 6 7 7 6 7 8 9 10 11 9 6 4 4 3 3 2 2 2 2 2 2 2 2
5 5 5 5 5 4 4 5 5 5 5 6 6 6 7 7 9 11 11 8 7 7 6 6 6 7 7 7 10 12 11 10 7 3 4 2 2 2 2 3 3 3 2
6 5 4 5 5 4 5 5 4 4 5 5 6 6 6 7 9 10 11 8 8 7 7 7 7 7 7 7 8 9 8 8 7 5 4 4 3 2 2 2 3 3 3
6 5 5 5 5 5 5 4 4 5 5 5 5 6 6 6 8 9 8 6 7 7 7 7 7 7 8 9 8 8 8 7 9 11 10 9 9 8 5 3 3 3 3
5 5 5 5 6 6 5 4 4 5 5 5 6 6 6 5 7 8 7 5 6 6 6 7 9 9 9 9 7 7 7 5 5 7 8 9 8 9 10 5 3 3 2
6 6 6 5 6 6 5 4 5 5 6 6 6 6 5 5 6 8 7 5 5 5 5 5 5 9 10 10 7 6 5 4 5 6 6 6 6 6 7 6 5 3 3
6 6 6 5 5 5 6 5 5 5 6 5 5 5 4 4 5 6 8 7 6 6 4 3 4 9 10 10 7 7 7 6 5 5 6 5 5 5 5 5 6 5 4
7 6 6 6 5 5 5 5 4 4 4 3 4 4 3 3 4 7 8 8 8 5 4 6 8 9 9 8 10 9 7 5 5 5 5 4 3 3 3 3 5 5 6
7 6 6 6 5 5 4 3 4 3 3 3 3 3 3 3 3 3 3 4 6 6 5 7 9 10 8 7 7 6 5 4 4 4 3 3 3 3 4 4 3 3 4
7 6 6 6 6 5 5 4 3 2 2 3 3 3 4 3 1 3 4 3 3 4 4 4 4 4 5 5 4 5 4 4 4 3 3 3 3 4 4 3 3 3 3
7 6 5 5 5 5 5 5 8 6 6 6 4 4 2 3 5 6 7 6 6 7 5 4 4 3 3 3 3 3 3 4 3 3 3 3 3 3 3 3 3 3 3
7 6 5 5 5 5 5 5 4 5 8 8 6 5 5 6 7 7 7 8 7 6 5 3 3 2 2 2 2 2 2 2 2 2 3 2 2 3 3 3 3 3 3
6 6 6 5 5 5 4 4 4 5 3 3 4 5 6 6 6 7 8 7 5 3 3 2 2 2 2 2 2 2 2 2 2 2 2 2 2 2 2 3 2 3 2
6 5 5 5 4 4 4 4 4 5 4 3 3 3 5 6 6 5 5 3 3 3 2 2 2 1 1 1 1 1 1 1 2 2 2 2 2 2 2 2 2 3 2
5 8 7 5 5 5 4 4 4 4 4 3 3 2 2 3 3 2 2 2 2 2 2 2 1 1 1 1 1 1 1 1 2 1 2 1 1 1 1 2 2 2 2
5 6 8 6 5 5 4 4 4 4 4 3 2 2 3 3 3 3 2 2 2 2 2 2 1 1 1 1 1 1 1 1 1 1 1 1 1 1 1 1 2 2 2
5 5 5 5 5 4 4 4 4 4 4 4 2 2 3 2 2 2 2 2 2 1 2 2 2 1 1 1 1 1 1 1 0 0 1 1 1 1 1 1 2 2 2
6 6 5 4 4 5 5 4 4 4 4 3 3 3 3 3 2 2 2 2 2 2 1 2 2 1 1 1 1 1 1 1 1 1 1 1 1 1 1 2 2 3 3
6 6 6 5 5 4 4 4 4 4 4 4 4 3 3 3 3 3 3 2 2 2 1 2 2 2 2 1 1 1 1 1 1 1 2 1 1 1 1 2 2 3 3
5 5 5 5 5 5 5 4 4 4 4 4 4 4 4 3 3 3 2 2 2 2 2 1 1 1 2 1 1 1 1 1 1 1 1 1 2 2 2 2 3 3 3
5 5 5 5 5 5 5 5 5 5 4 4 4 4 4 4 3 3 3 2 2 2 2 1 2 2 2 2 2 2 2 2 2 1 1 1 2 2 2 2 4 3 4
Wind_Direction
143 139 130 130 125 115 102 75 61 46 43 44 46 47 44 49 54 64 61 64 70 50 44 82 50 350 82 85 104 97 117 156 205 310 13 27 46 56 48 54 58 56 53
139 128 124 116 108 102 90 68 64 60 53 54 55 56 51 50 55 68 62 57 57 49 44 57 50 53 53 58 73 75 76 95 143 130 27 33 49 55 58 57 52 60 60
124 118 112 110 107 103 91 70 61 57 47 45 55 58 51 52 60 66 73 66 57 51 50 53 51 60 54 53 62 68 71 77 92 110 63 34 47 46 52 57 55 46 56
120 118 117 116 115 108 92 74 62 60 56 48 50 55 54 59 63 66 73 72 66 56 51 53 52 60 62 65 68 68 77 80 82 88 75 52 44 39 56 60 56 48 47
118 114 114 108 100 91 82 74 66 62 64 60 58 56 56 65 64 71 73 74 68 61 53 51 56 63 65 66 72 72 79 83 82 80 71 56 44 44 46 44 75 65 51
118 116 112 106 98 91 87 82 75 65 62 62 61 62 60 65 71 76 81 73 67 63 58 51 53 55 60 64 66 66 73 87 89 81 73 71 44 34 41 65 79 73 61
118 114 115 113 105 97 95 89 81 73 72 68 64 66 66 64 73 78 78 80 72 64 59 55 55 50 56 65 63 61 58 62 70 89 84 65 51 27 64 70 70 71 70
117 114 113 113 108 100 94 90 82 78 77 76 71 69 72 67 75 80 80 75 69 59 55 56 61 53 56 68 72 65 56 48 49 59 66 55 55 58 69 83 94 89 77
125 124 122 121 117 109 102 95 87 88 81 77 78 77 77 66 69 82 85 80 73 61 53 53 59 60 53 66 74 71 63 51 53 61 61 57 54 54 63 82 79 83 69
141 136 133 128 125 119 112 101 92 93 92 90 80 71 75 71 68 79 87 89 82 72 59 52 54 62 59 64 72 75 71 52 52 53 50 46 49 48 47 52 62 75 71
137 128 124 124 122 119 111 103 102 99 93 89 86 73 65 63 68 75 83 89 95 87 73 57 50 59 63 63 68 71 78 76 67 65 58 49 44 43 41 42 42 54 64
129 127 125 123 123 120 115 107 103 104 99 94 91 79 61 54 62 75 81 84 94 94 84 71 66 69 68 65 65 66 68 68 68 64 58 47 40 36 32 37 46 53 51
130 128 124 119 108 111 115 115 108 103 106 104 101 96 77 62 64 72 79 84 87 88 86 87 81 74 69 63 59 61 61 64 66 65 58 44 27 20 26 35 39 47 53
135 131 126 122 110 97 96 106 114 115 117 120 118 114 101 82 76 79 81 83 82 83 81 78 75 69 66 59 53 49 50 56 66 66 56 40 31 36 36 29 31 28 43
135 132 126 119 116 103 88 72 91 88 131 142 144 140 135 127 148 137 123 104 103 106 99 76 64 61 60 54 50 46 46 49 52 48 54 52 46 44 36 27 31 36 43
138 136 132 128 124 121 113 86 54 67 75 80 107 127 110 123 130 121 111 106 107 112 95 86 77 73 73 69 63 54 47 45 43 50 55 54 49 47 45 37 38 40 39
148 145 141 140 139 139 136 129 109 64 61 67 80 99 117 127 126 121 111 102 100 104 92 94 93 90 84 78 71 64 49 34 36 55 59 52 49 49 47 39 34 33 30
142 144 143 143 143 141 139 134 130 127 112 67 50 75 106 117 120 123 120 103 83 75 95 109 110 109 106 101 88 76 65 53 49 48 53 52 49 52 50 38 30 23 19
140 140 137 135 133 131 129 128 126 124 123 114 96 74 89 102 98 103 112 105 120 117 112 112 114 116 114 111 100 86 79 68 56 50 47 45 43 46 43 31 26 24 20
139 141 139 138 134 132 132 133 134 135 136 135 134 129 124 111 107 105 98 109 123 130 131 128 123 127 131 128 123 110 89 69 57 50 41 33 27 28 29 19 12 9 359
137 141 139 137 142 145 146 147 148 146 146 144 143 141 147 140 139 138 137 139 145 148 147 146 144 143 135 136 138 127 109 77 52 38 33 19 11 4 349 345 345 345 340
138 141 144 145 146 148 148 147 147 145 147 146 131 114 132 126 135 141 145 149 148 148 155 157 157 155 158 163 165 159 152 138 57 355 349 349 345 341 339 342 342 337 334
138 138 138 139 143 144 143 143 144 146 149 151 145 140 146 151 149 153 156 153 143 141 146 150 151 149 146 157 180 186 189 214 244 255 276 302 315 320 322 326 327 329 329
140 142 143 143 143 147 149 147 148 152 151 151 153 154 156 155 157 163 165 154 143 143 152 162 171 174 172 168 171 195 232 253 248 238 243 262 286 298 304 311 311 314 312
139 142 144 147 150 150 149 149 152 155 156 158 158 156 154 155 160 162 160 156 154 161 171 177 182 193 203 207 214 229 235 226 231 240 233 243 266 281 287 292 297 303 308
142 145 148 149 151 152 154 156 158 159 160 160 158 159 160 163 166 167 168 171 176 181 186 196 209 213 214 218 228 235 236 238 239 236 234 239 257 274 283 284 294 295 298